Location: Newark
(25.6108°S, 54.5803°W)
Time: 10:19:37
(UTC+00:00)

deb Explorer IX - Pass Details

Date: 05 November 2020
Orbit: 538 x 1104 km, 38.8° (Epoch: 23 November)

Event Time Altitude Azimuth Distance (km) Brightness Sun altitude
Rises 14:32:29 0° 335° (NNW) 3,899 ? 74.9°
Reaches altitude 10° 14:35:44 10° 347° (NNW) 2,950 ? 75.5°
Maximum altitude 14:41:38 27° 41° (NE) 1,946 ? 76.5°
Drops below altitude 10° 14:47:17 10° 95° (E) 2,824 ? 77.4°
Sets 14:50:18 0° 107° (ESE) 3,704 ? 77.8°
